OBJECT E
1 38762U 0        12278.53224914  .00004835  00000-0  44703-3 0 00303
2 38762 064.6771 337.4428 0219560 283.4439 224.1284 14.79190727003032
OBJECT F
1 38763U 0        12278.53194539  .00004382  00000-0  40626-3 0 00287
2 38763 064.6755 337.4432 0219859 283.6030 224.1451 14.79201828002872
OBJECT G
1 38764U 0        12278.53160882  .00004593  00000-0  42532-3 0 00284
2 38764 064.6751 337.4420 0219548 283.5935 222.9426 14.79214043003034
OBJECT H
1 38765U 0        12278.45503644  .00006059  00000-0  55525-3 0 00312
2 38765 064.6769 337.6737 0219301 283.5957 176.6794 14.79257306003029
OBJECT J
1 38766U 0        12278.45696642  .00006945  00000-0  63214-3 0 00288
2 38766 064.6746 337.6519 0219104 283.4617 195.2216 14.79383851003027
